Regional Weather Roundup
Issued by NWS

Home | Current Version | Previous Version | Text Only | Print | Product List | Glossary Off
Versions: 1 2 3 4 5 6 7 8 9 10 11 12 13 14 15 16 17 18 19 20 21 22 23 24 25 26 27 28 29 30 31 32 33 34 35 36 37 38 39 40 41 42 43 44 45 46 47 48 49 50

000
ASUS43 KDTX 270701
RWRMI
MICHIGAN HOURLY REGIONAL WEATHER ROUNDUP
NATIONAL WEATHER SERVICE DETROIT/PONTIAC MI
300 AM EDT MON APR 27 2015

NOTE: "FAIR" INDICATES FEW OR NO CLOUDS BELOW 12,000 FEET WITH NO
SIGNIFICANT WEATHER AND/OR OBSTRUCTION TO VISIBILITY.

MIZ047>049-052>055-059>063-066>070-074>076-081>083-270800-
SOUTHEAST LOWER MICHIGAN

CITY           SKY/WX    TMP DP  RH WIND       PRES   REMARKS
ADRIAN         CLEAR     39  32  76 CALM      29.95F
ALMA           CLOUDY    41  34  76 NW6       29.96F
ANN ARBOR      CLEAR     31  29  92 W5        29.93F WCI  26
BAD AXE        LGT RAIN  39  36  87 N10       29.93S WCI  32
CARO           DRIZZLE   42  37  79 N10G18    29.93R
DETROIT CITY   MOCLDY    41  31  67 W6        29.92F
DETROIT        PTCLDY    40  31  70 W6        29.93F
FLINT          CLOUDY    42  33  70 W7        29.94F
HILLSDALE      CLEAR     40  33  77 CALM      29.94S
HOWELL         CLOUDY    37  32  81 NW5       29.93F WCI  34

CITY           SKY/WX    TMP DP  RH WIND       PRES   REMARKS
JACKSON        CLEAR     36  30  79 NW3       29.95S
LAMBERTVILLE   CLOUDY    41  34  75 CALM      29.94F
LANSING        PTCLDY    36  30  79 NW7       29.97S WCI  30
LAPEER         CLOUDY    41  33  73 NW6       29.91F
MASON          CLEAR     36  30  79 CALM      29.95F
MONROE         CLEAR     36  32  87 CALM      29.92F
PONTIAC        CLOUDY    39  33  79 W6        29.91F WCI  35
PORT HOPE        N/A     39  35  86 N8        29.92S WCI  33
PORT HURON     CLOUDY    43  36  75 NW3       29.90F
TRI CITIES     CLOUDY    45  33  63 NW10      29.95S
MIDLAND        CLOUDY    43  33  68 NW3       29.95S
TROY           CLOUDY    43  32  65 W6        29.93F
SAGINAW HB     CLOUDY    43  32  65 NW9       29.94S
$$
MIZ043>046-050>051-056>058-064>065-071>073-077>080-270800-
SOUTHWEST LOWER MICHIGAN

CITY           SKY/WX    TMP DP  RH WIND       PRES   REMARKS
BATTLE CREEK   CLEAR     41  30  65 N7        29.97S
BENTON HARBOR  CLEAR     37  34  89 CALM      30.00S
BIG RAPIDS     CLOUDY    42  31  65 NW5       29.98S
COLDWATER      CLEAR     40  30  68 N6        29.95S
FREMONT        CLOUDY    40  29  65 NW7       30.00S
HOLLAND        CLEAR     43  31  62 N5        30.01S
GRAND RAPIDS   MOCLDY    41  30  65 N7        29.99S
IONIA          PTSUNNY   40  32  71 NW6       29.97S
KALAMAZOO      FAIR      37  29  72 N8        29.97S WCI  31
LUDINGTON      PTCLDY    40  32  71 N8        30.04S
MARSHALL       CLEAR     39  31  71 CALM      29.95F
MOUNT PLEASANT CLOUDY    42  32  67 NW5       29.96S
MUSKEGON       CLOUDY    43  31  62 NW9       30.02S
SOUTH HAVEN    CLEAR     39  32  75 N3        29.99F
$$
MIZ016>042-270800-
NORTHERN LOWER MICHIGAN

CITY           SKY/WX    TMP DP  RH WIND       PRES   REMARKS
BEAVER ISLAND  CLOUDY    41  34  75 N7        30.04S
BELLAIRE       CLOUDY    42  34  73 N3        30.02R
CADILLAC       PTCLDY    38  31  78 N7        29.97S WCI  32
CHARLEVOIX     CLOUDY    38  34  84 N7        30.05S WCI  33
FRANKFORT      CLOUDY    42  31  65 N7        30.04F
GAYLORD        CLOUDY    39  33  79 N8        29.98R WCI  33
GRAYLING       CLOUDY    41  33  72 CALM      29.98R
HARBOR SPRINGS CLOUDY    41  33  75 N6        30.01F
HOUGHTON LAKE  CLOUDY    41  31  67 N7        29.96S
MANISTEE       MOCLDY    37  30  75 NW6       30.04S WCI  33
OSCODA         MIX PCPN  41  35  80 N14       29.95R
PELLSTON       CLOUDY    41  33  73 N9        30.02S
ROGERS CITY    CLOUDY    39  34  83 N7        30.00S WCI  34
TRAVERSE CITY  CLOUDY    42  34  73 N9        30.01S
$$
MIZ007>008-015-270800-
EASTERN UPPER MICHIGAN

CITY           SKY/WX    TMP DP  RH WIND       PRES   REMARKS
KINROSS        CLOUDY    39  36  87 NW9       30.01S WCI  33
MACKINAC ISLAN CLOUDY    39  33  78 N8        30.02R WCI  34
NEWBERRY       CLOUDY    38  33  82 NW6       30.04S WCI  34
S. S. MARIE    CLOUDY    41  33  73 N6        30.00S
$$
MIZ004>006-011>014-085-270800-
CENTRAL UPPER MICHIGAN

CITY           SKY/WX    TMP DP  RH WIND       PRES   REMARKS
MANISTIQUE     CLOUDY    39  34  80 N7        30.05F WCI  34
ESCANABA       CLOUDY    43  28  56 NW5       30.08F
MENOMINEE      CLEAR     39  27  60 N7        30.08F WCI  34
SAWYER-GWINN   CLEAR     39  28  66 N10       30.08S WCI  32
$$
MIZ001>003-009>011-084-270800-
WESTERN UPPER MICHIGAN

CITY           SKY/WX    TMP DP  RH WIND       PRES   REMARKS
IRON MOUNTAIN  CLEAR     37  27  67 NW5       30.09S WCI  33
HOUGHTON       CLEAR     34  27  75 NW9       30.13F WCI  27
COPPER HARBOR    N/A     40  31  70 N8        30.13F WCI  34
IRONWOOD       CLEAR     30  30 100 W3        30.15S
$$

ABBREVIATIONS USED IN REMARKS
   TC - TEMPERATURE IN CELSIUS
  WCI - WIND CHILL INDEX
   HX - HEAT INDEX
  VSB - VISIBILITY




USA.gov is the U.S. government's official web portal to all federal, state and local government web resources and services.